(360427) = 1999 TD243 = 2002 GV185

Discovered at Palomar on 2002-04-09 by NEAT.

Orbit

Orbit type: Main Belt

Note: WebGL enabled browser required.

epoch2024-03-31.0
epoch JD2460400.5
perihelion date2021-06-18.01620
perihelion JD2459383.51620
argument of perihelion (°)121.38555
ascending node (°)197.49019
inclination (°)10.89688
eccentricity0.2928498
perihelion distance (AU)1.6854161
Tisserand w.r.t. Jupiter3.5
ΔV w.r.t. Earth (km/sec)8.7
semimajor axis (AU)2.3833920
mean anomaly (°)272.41101
mean daily motion (°/day)0.26786170
aphelion distance (AU)3.081
period (years)3.68
P-vector [x]0.74865878
P-vector [y]-0.65414705
P-vector [z]-0.10771102
Q-vector [x]0.66051651
Q-vector [y]0.72207015
Q-vector [z]0.20574895
absolute magnitude17.55
phase slope0.15
uncertainty0
referenceMPEC 2024-F50
observations used437
oppositions9
arc length (days)8935
first opposition used1999
last opposition used2024
residual rms (arc-secs)0.63
perturbers coarse indicatorM-v
perturbers precise indicator003Ek
first observation date used1999-10-02.0
last observation date used2024-03-19.0
computer nameMPCLINUX
JD of orbit computation2456465.483646
perihelion JD uncertainty (days)3.1894E-04
argument of perihelion uncertainty (°)1.0891E-04
ascending node uncertainty (°)1.6864E-05
inclination uncertainty (°)2.4058E-05
eccentricity uncertainty 2.2993E-07
perihelion distance uncertainty (AU)5.5034E-07
Minimum Orbit Intersection Distances (in AU)
for orbit epoch: 2460400.5, reference: E2024-G51
Mercury1.28623
Venus0.98572
Earth0.70361
Mars0.39724
Jupiter2.35603
Saturn6.15782
Uranus15.4443
Neptune27.2253

Observations

448 total observations over interval: 1999 10 02.32617 – 2024 03 19.532455
These data are available for download (format description).

Date (UT) J2000 RA J2000 Dec Magn Location Ref
1999 10 02.32617 01 55 33.79 +11 08 49.7 19.4 R 703 – Catalina Sky Survey MPS 15434
1999 10 02.33857 01 55 33.17 +11 08 40.8 19.3 R 703 – Catalina Sky Survey MPS 15434
1999 10 02.35087 01 55 32.77 +11 08 32.0 19.9 R 703 – Catalina Sky Survey MPS 15434
1999 10 02.36317 01 55 32.02 +11 08 20.8 19.5 R 703 – Catalina Sky Survey MPS 15434
1999 10 05.35754 01 53 27.99 +10 26 59.3 19.3   704 – Lincoln Laboratory ETS, New Mexico MPS 15434
1999 10 05.37108 01 53 27.35 +10 26 47.3 19.7   704 – Lincoln Laboratory ETS, New Mexico MPS 15434
1999 10 05.38465 01 53 26.73 +10 26 37.1 20.0   704 – Lincoln Laboratory ETS, New Mexico MPS 15434
1999 10 05.39821 01 53 26.13 +10 26 25.3 19.8   704 – Lincoln Laboratory ETS, New Mexico MPS 15434
1999 10 05.41177 01 53 25.47 +10 26 13.8 19.6   704 – Lincoln Laboratory ETS, New Mexico MPS 15434
1999 10 09.28822 01 50 30.69 +09 31 31.6 19.1 R 703 – Catalina Sky Survey MPS 15434
1999 10 09.30021 01 50 30.12 +09 31 22.3 19.3 R 703 – Catalina Sky Survey MPS 15434
1999 10 09.31218 01 50 29.45 +09 31 11.1 19.2 R 703 – Catalina Sky Survey MPS 15434
1999 10 09.32410 01 50 28.95 +09 31 01.1 19.8 R 703 – Catalina Sky Survey MPS 15434
1999 10 15.26109 01 45 41.75 +08 06 39.4 19.4   704 – Lincoln Laboratory ETS, New Mexico MPS 15434
1999 10 15.27826 01 45 40.91 +08 06 24.7 19.4   704 – Lincoln Laboratory ETS, New Mexico MPS 15434
1999 10 15.29443 01 45 40.09 +08 06 10.7 19.3   704 – Lincoln Laboratory ETS, New Mexico MPS 15434
1999 10 15.32742 01 45 38.36 +08 05 43.0 19.7   704 – Lincoln Laboratory ETS, New Mexico MPS 15434
2002 04 03.50990 14 02 42.87 -10 07 30.0 20.4 R 644 – Palomar Mountain/NEAT MPS 291459
2002 04 03.52034 14 02 42.42 -10 07 24.3 20.3 R 644 – Palomar Mountain/NEAT MPS 291459
2002 04 09.24833 13 58 13.06 -09 12 49.2 20.5 R 644 – Palomar Mountain/NEAT MPS 291459
2002 04 09.31179 13 58 09.77 -09 12 11.6 20.1 R 644 – Palomar Mountain/NEAT MPS 291459
2002 04 09.37411 13 58 06.52 -09 11 34.7 20.1 R 644 – Palomar Mountain/NEAT MPS 291459
2002 04 10.37855 13 57 15.71 -09 01 36.3   644 – Palomar Mountain/NEAT MPS 291459
2002 04 10.38217 13 57 15.52 -09 01 33.9   644 – Palomar Mountain/NEAT MPS 291459
2002 04 14.38813 13 53 45.16 -08 20 50.2 19.7 R 644 – Palomar Mountain/NEAT MPS 291459
2002 04 14.41194 13 53 43.78 -08 20 36.3 19.6 R 644 – Palomar Mountain/NEAT MPS 291459
2002 04 14.43322 13 53 42.60 -08 20 22.1 19.9 R 644 – Palomar Mountain/NEAT MPS 291459
2002 04 24.28299 13 44 36.68 -06 37 26.9 20.1 R 644 – Palomar Mountain/NEAT MPS 291459
2002 04 24.30735 13 44 35.21 -06 37 11.3 20.1 R 644 – Palomar Mountain/NEAT MPS 291459
2002 05 19.16101 13 25 01.28 -02 53 35.4 20.7 R 644 – Palomar Mountain/NEAT MPS 291459
2002 05 19.20171 13 24 59.86 -02 53 18.6   644 – Palomar Mountain/NEAT MPS 291459
2010 06 29.091007 00 15 21.506 +12 21 24.91   C51 – WISE MPS 904182
2010 06 29.223311 00 15 36.386 +12 22 47.64   C51 – WISE MPS 904182
2010 06 29.355615 00 15 51.221 +12 24 10.26   C51 – WISE MPS 904182
2010 06 29.487919 00 16 06.043 +12 25 32.09   C51 – WISE MPS 904182
2010 06 29.620222 00 16 20.885 +12 26 54.67   C51 – WISE MPS 904182
2010 06 29.752527 00 16 35.705 +12 28 16.68   C51 – WISE MPS 904182
2010 06 29.884830 00 16 50.474 +12 29 38.69   C51 – WISE MPS 904182
2010 06 29.950918 00 16 57.866 +12 30 19.22   C51 – WISE MPS 904182
2010 06 30.017134 00 17 05.270 +12 31 00.77   C51 – WISE MPS 904182
2010 06 30.083222 00 17 12.643 +12 31 40.84   C51 – WISE MPS 904182
2010 06 30.149438 00 17 20.033 +12 32 21.55   C51 – WISE MPS 904182
2010 06 30.215525 00 17 27.408 +12 33 02.38   C51 – WISE MPS 904182
2010 06 30.281741 00 17 34.805 +12 33 43.34   C51 – WISE MPS 904182
2010 06 30.347830 00 17 42.149 +12 34 23.63   C51 – WISE MPS 904182
2010 06 30.414045 00 17 49.529 +12 35 04.52   C51 – WISE MPS 904182
2010 06 30.480133 00 17 56.885 +12 35 44.45   C51 – WISE MPS 904182
2010 06 30.612438 00 18 11.597 +12 37 05.23   C51 – WISE MPS 904182
2010 06 30.744741 00 18 26.314 +12 38 26.74   C51 – WISE MPS 904182
2010 06 30.877044 00 18 41.033 +12 39 46.98   C51 – WISE MPS 904182
2010 07 01.009348 00 18 55.726 +12 41 07.12   C51 – WISE MPS 904182
2010 07 01.141652 00 19 10.373 +12 42 27.72   C51 – WISE MPS 904182
2010 08 18.622474 01 25 38.414 +16 33 15.83 19.71 z F51 – Pan-STARRS 1, Haleakala MPS 365411
2010 08 18.630433 01 25 38.729 +16 33 15.23 19.89 z F51 – Pan-STARRS 1, Haleakala MPS 365411
2010 09 08.36147 01 32 35.03 +14 40 10.1 19.7 V 691 – Steward Observatory, Kitt Peak-Spacewatch MPS 347069
2010 09 08.37916 01 32 34.92 +14 40 00.8 19.7 V 691 – Steward Observatory, Kitt Peak-Spacewatch MPS 347069
2010 09 08.39684 01 32 34.77 +14 39 50.8 19.6 V 691 – Steward Observatory, Kitt Peak-Spacewatch MPS 347069
2010 09 16.37085 01 30 58.34 +13 16 47.6 19.6 V 691 – Steward Observatory, Kitt Peak-Spacewatch MPS 347895
2010 09 16.38853 01 30 57.91 +13 16 35.3 19.7 V 691 – Steward Observatory, Kitt Peak-Spacewatch MPS 347895
2010 09 16.40622 01 30 57.40 +13 16 20.8 19.1 V 691 – Steward Observatory, Kitt Peak-Spacewatch MPS 347895
2010 09 28.402190 01 24 53.997 +10 38 01.11 19.59 i F51 – Pan-STARRS 1, Haleakala MPS 365411
2010 09 28.413705 01 24 53.510 +10 37 51.09 19.49 i F51 – Pan-STARRS 1, Haleakala MPS 365411
2010 09 30.32678 01 23 37.24 +10 09 57.6 18.9 V 703 – Catalina Sky Survey MPS 349382
2010 09 30.33483 01 23 36.96 +10 09 49.8 18.8 V 703 – Catalina Sky Survey MPS 349382
2010 09 30.34295 01 23 36.49 +10 09 42.8 19.1 V 703 – Catalina Sky Survey MPS 349382
2010 09 30.35102 01 23 36.24 +10 09 35.3 19.0 V 703 – Catalina Sky Survey MPS 349382
2010 09 30.46858 01 23 31.09 +10 07 51.4 19.8 V 703 – Catalina Sky Survey MPS 349382
2010 09 30.47435 01 23 30.76 +10 07 45.2 18.9 V 703 – Catalina Sky Survey MPS 349382
2010 09 30.48019 01 23 30.51 +10 07 41.3 19.6 V 703 – Catalina Sky Survey MPS 349382
2010 09 30.48604 01 23 30.30 +10 07 36.5 19.1 V 703 – Catalina Sky Survey MPS 349382
2010 10 02.33525 01 22 13.77 +09 40 12.8 19.1 V 691 – Steward Observatory, Kitt Peak-Spacewatch MPS 349382
2010 10 02.35297 01 22 12.94 +09 39 56.7 19.0 V 691 – Steward Observatory, Kitt Peak-Spacewatch MPS 349382
2010 10 02.35657 01 22 12.80 +09 39 52.6 18.8   704 – Lincoln Laboratory ETS, New Mexico MPS 349382
2010 10 02.36983 01 22 12.16 +09 39 40.5 19.1   704 – Lincoln Laboratory ETS, New Mexico MPS 349382
2010 10 02.37069 01 22 12.15 +09 39 41.1 19.1 V 691 – Steward Observatory, Kitt Peak-Spacewatch MPS 349382
2010 10 02.38304 01 22 11.53 +09 39 28.9 18.6   704 – Lincoln Laboratory ETS, New Mexico MPS 349382
2010 10 02.39636 01 22 10.93 +09 39 16.9 19.1   704 – Lincoln Laboratory ETS, New Mexico MPS 349382
2010 10 02.40955 01 22 10.32 +09 39 05.4 19.3   704 – Lincoln Laboratory ETS, New Mexico MPS 349382
2010 10 03.512904 01 21 23.187 +09 22 38.29 19.09 r F51 – Pan-STARRS 1, Haleakala MPS 365411
2010 10 03.524350 01 21 22.656 +09 22 27.89 19.09 r F51 – Pan-STARRS 1, Haleakala MPS 365411
2010 10 07.536708 01 18 25.314 +08 22 00.91 18.92 g F51 – Pan-STARRS 1, Haleakala MPS 365411
2010 10 07.548844 01 18 24.737 +08 21 49.83 18.89 g F51 – Pan-STARRS 1, Haleakala MPS 365411
2010 10 08.22944 01 17 54.80 +08 11 31.9 18.9   704 – Lincoln Laboratory ETS, New Mexico MPS 351086
2010 10 08.24278 01 17 54.15 +08 11 19.9 19.4   704 – Lincoln Laboratory ETS, New Mexico MPS 351086
2010 10 08.25770 01 17 53.49 +08 11 07.0 19.1   704 – Lincoln Laboratory ETS, New Mexico MPS 351086
2010 10 08.27186 01 17 52.76 +08 10 54.1 19.7   704 – Lincoln Laboratory ETS, New Mexico MPS 351086
2010 10 08.28534 01 17 52.06 +08 10 41.8 19.2   704 – Lincoln Laboratory ETS, New Mexico MPS 351086
2010 10 08.31378 01 17 50.75 +08 10 16.0 19.2 V 691 – Steward Observatory, Kitt Peak-Spacewatch MPS 351086
2010 10 08.32888 01 17 50.00 +08 10 02.2 19.1 V 691 – Steward Observatory, Kitt Peak-Spacewatch MPS 351086
2010 10 08.34398 01 17 49.29 +08 09 48.7 19.0 V 691 – Steward Observatory, Kitt Peak-Spacewatch MPS 351086
2010 10 12.32401 01 14 50.20 +07 10 14.3 19.0 V 691 – Steward Observatory, Kitt Peak-Spacewatch MPS 351086
2010 10 12.34169 01 14 49.34 +07 09 58.7 19.1 V 691 – Steward Observatory, Kitt Peak-Spacewatch MPS 351086
